When you browse on this site, cookies collect data to enhance your experience and personalize the content and advertising you see.
Visit our Privacy Policy to learn more. By continuing to use the site, you agree to this use of cookies and data.
  • In Schweiz
  • Länderverzeichnis
  • Für 7 Tage
  • Wassertemperatur
  • Satellitenkarten
  • Wetterkarte
  • Widgets
  • user-avatar
    Anmelden

    Stündliche Wetter Dublin

    Heute, 10 Dezember, Montag

    Zeit Temperatur Niederschläge Wind Luftdruck Luftfeuchtigkeit
    00:00 +2°C° 0 mm 7 m/S 752 mmHg 93%
    01:00 +2°C° 0 mm 6 m/S 752 mmHg 93%
    02:00 +1°C° 0 mm 6 m/S 752 mmHg 94%
    03:00 +1°C° 0 mm 5 m/S 752 mmHg 94%
    04:00 +1°C° 0 mm 5 m/S 752 mmHg 94%
    05:00 +1°C° 0 mm 5 m/S 753 mmHg 95%
    06:00 0°C° 0 mm 4 m/S 753 mmHg 95%
    07:00 +1°C° 0 mm 4 m/S 753 mmHg 94%
    08:00 +2°C° 0 mm 3 m/S 753 mmHg 93%
    09:00 +3°C° 0 mm 3 m/S 753 mmHg 91%
    10:00 +3°C° 0 mm 3 m/S 753 mmHg 90%
    11:00 +5°C° 0 mm 2 m/S 753 mmHg 88%
    12:00 +5°C° 0 mm 2 m/S 753 mmHg 86%
    13:00 +5°C° 0 mm 3 m/S 753 mmHg 86%
    14:00 +5°C° 0 mm 3 m/S 753 mmHg 87%
    15:00 +6°C° 0 mm 4 m/S 752 mmHg 87%
    16:00 +6°C° 0 mm 4 m/S 752 mmHg 90%
    17:00 +6°C° 0 mm 4 m/S 752 mmHg 93%
    18:00 +6°C° 0 mm 4 m/S 751 mmHg 95%
    19:00 +6°C° 0 mm 4 m/S 751 mmHg 96%
    20:00 +6°C° 0 mm 4 m/S 751 mmHg 96%
    21:00 +7°C° 0 mm 4 m/S 751 mmHg 97%
    22:00 +7°C° 0 mm 4 m/S 751 mmHg 97%
    23:00 +7°C° 0 mm 4 m/S 751 mmHg 97%

    Morgen, 11 Dezember, Dienstag

    Zeit Temperatur Niederschläge Wind Luftdruck Luftfeuchtigkeit
    00:00 +7°C° 0 mm 4 m/S 750 mmHg 97%
    01:00 +7°C° 0 mm 4 m/S 750 mmHg 97%
    02:00 +7°C° 0 mm 4 m/S 749 mmHg 97%
    03:00 +6°C° 0 mm 4 m/S 749 mmHg 97%
    04:00 +7°C° 0 mm 4 m/S 748 mmHg 96%
    05:00 +7°C° 0 mm 5 m/S 748 mmHg 96%
    06:00 +7°C° 0 mm 5 m/S 748 mmHg 96%
    07:00 +7°C° 0 mm 5 m/S 747 mmHg 95%
    08:00 +8°C° 0 mm 6 m/S 747 mmHg 94%
    09:00 +8°C° 0 mm 7 m/S 747 mmHg 93%
    10:00 +8°C° 0 mm 7 m/S 746 mmHg 91%
    11:00 +7°C° 0 mm 8 m/S 746 mmHg 90%
    12:00 +8°C° 0 mm 9 m/S 745 mmHg 88%
    13:00 +7°C° 0.1 mm 9 m/S 745 mmHg 88%
    14:00 +7°C° 0.1 mm 9 m/S 744 mmHg 88%
    15:00 +7°C° 0.1 mm 9 m/S 744 mmHg 88%
    16:00 +7°C° 0.2 mm 8 m/S 743 mmHg 89%
    17:00 +7°C° 0.2 mm 8 m/S 743 mmHg 89%
    18:00 +7°C° 0.2 mm 8 m/S 743 mmHg 90%
    19:00 +6°C° 1.1 mm 8 m/S 743 mmHg 91%
    20:00 +5°C° 1.1 mm 8 m/S 743 mmHg 92%
    21:00 +5°C° 1.1 mm 8 m/S 743 mmHg 93%
    22:00 +4°C° 0.7 mm 7 m/S 743 mmHg 93%
    23:00 +4°C° 0.7 mm 6 m/S 743 mmHg 94%

    übermorgen, 12 Dezember, Mittwoch

    Zeit Temperatur Niederschläge Wind Luftdruck Luftfeuchtigkeit
    00:00 +3°C° 0.7 mm 5 m/S 743 mmHg 94%
    01:00 +3°C° 0 mm 5 m/S 744 mmHg 95%
    02:00 +2°C° 0 mm 5 m/S 744 mmHg 95%
    03:00 +3°C° 0 mm 4 m/S 744 mmHg 96%
    04:00 +3°C° 0 mm 4 m/S 744 mmHg 96%
    05:00 +2°C° 0 mm 3 m/S 744 mmHg 96%
    06:00 +2°C° 0 mm 3 m/S 744 mmHg 96%
    07:00 +1°C° 0 mm 3 m/S 744 mmHg 95%
    08:00 +1°C° 0 mm 3 m/S 744 mmHg 95%
    09:00 +2°C° 0 mm 2 m/S 744 mmHg 95%
    10:00 +2°C° 0 mm 3 m/S 744 mmHg 91%
    11:00 +3°C° 0 mm 3 m/S 744 mmHg 87%
    12:00 +5°C° 0 mm 3 m/S 743 mmHg 84%
    13:00 +5°C° 0 mm 4 m/S 743 mmHg 84%
    14:00 +5°C° 0 mm 5 m/S 742 mmHg 84%
    15:00 +5°C° 0 mm 5 m/S 742 mmHg 85%
    16:00 +4°C° 0 mm 6 m/S 741 mmHg 85%
    17:00 +3°C° 0 mm 6 m/S 740 mmHg 85%
    18:00 +3°C° 0 mm 7 m/S 740 mmHg 86%
    19:00 +4°C° 0 mm 8 m/S 739 mmHg 85%
    20:00 +4°C° 0 mm 8 m/S 739 mmHg 84%
    21:00 +3°C° 0 mm 9 m/S 738 mmHg 83%
    22:00 +5°C° 0.4 mm 9 m/S 737 mmHg 84%
    23:00 +5°C° 0.4 mm 9 m/S 737 mmHg 86%

    13 Dezember, Donnerstag

    Zeit Temperatur Niederschläge Wind Luftdruck Luftfeuchtigkeit
    00:00 +5°C° 0.4 mm 9 m/S 737 mmHg 87%
    01:00 +5°C° 0.8 mm 9 m/S 736 mmHg 88%
    02:00 +5°C° 0.8 mm 9 m/S 736 mmHg 89%
    03:00 +5°C° 0.8 mm 9 m/S 735 mmHg 90%
    04:00 +5°C° 0.8 mm 9 m/S 735 mmHg 89%
    05:00 +5°C° 0.8 mm 9 m/S 735 mmHg 89%
    06:00 +3°C° 0.8 mm 9 m/S 735 mmHg 89%
    07:00 +3°C° 0.7 mm 9 m/S 735 mmHg 89%
    08:00 +4°C° 0.7 mm 8 m/S 735 mmHg 90%
    09:00 +4°C° 0.7 mm 8 m/S 736 mmHg 90%
    10:00 +4°C° 0.8 mm 7 m/S 736 mmHg 91%
    11:00 +4°C° 0.8 mm 7 m/S 736 mmHg 92%
    12:00 +4°C° 0.8 mm 7 m/S 737 mmHg 93%
    13:00 +4°C° 0.6 mm 7 m/S 737 mmHg 93%
    14:00 +4°C° 0.6 mm 6 m/S 738 mmHg 93%
    15:00 +4°C° 0.6 mm 6 m/S 738 mmHg 92%
    16:00 +5°C° 0.2 mm 5 m/S 739 mmHg 92%
    17:00 +3°C° 0.2 mm 5 m/S 740 mmHg 92%
    18:00 +3°C° 0.2 mm 5 m/S 741 mmHg 92%
    19:00 +3°C° 0.1 mm 5 m/S 741 mmHg 92%
    20:00 +4°C° 0.1 mm 4 m/S 742 mmHg 92%
    21:00 +4°C° 0.1 mm 4 m/S 743 mmHg 92%
    22:00 +4°C° 0 mm 4 m/S 743 mmHg 92%
    23:00 +4°C° 0 mm 4 m/S 743 mmHg 93%

    14 Dezember, Freitag

    Zeit Temperatur Niederschläge Wind Luftdruck Luftfeuchtigkeit
    00:00 +3°C° 0 mm 3 m/S 744 mmHg 93%
    01:00 +3°C° 0 mm 3 m/S 744 mmHg 93%
    02:00 +3°C° 0 mm 4 m/S 744 mmHg 93%
    03:00 +4°C° 0 mm 4 m/S 744 mmHg 93%
    04:00 +3°C° 0 mm 4 m/S 744 mmHg 92%
    05:00 +2°C° 0 mm 5 m/S 743 mmHg 92%
    06:00 +2°C° 0 mm 5 m/S 743 mmHg 92%
    07:00 +3°C° 0 mm 6 m/S 743 mmHg 91%
    08:00 +3°C° 0 mm 7 m/S 743 mmHg 90%
    09:00 +3°C° 0 mm 7 m/S 744 mmHg 90%
    10:00 +4°C° 0.1 mm 8 m/S 743 mmHg 89%
    11:00 +5°C° 0.1 mm 9 m/S 743 mmHg 88%
    12:00 +5°C° 0.1 mm 10 m/S 742 mmHg 87%
    13:00 +6°C° 0 mm 10 m/S 742 mmHg 85%
    14:00 +6°C° 0 mm 10 m/S 741 mmHg 82%
    15:00 +6°C° 0 mm 10 m/S 741 mmHg 80%
    16:00 +6°C° 0.2 mm 10 m/S 740 mmHg 84%
    17:00 +7°C° 0.2 mm 10 m/S 740 mmHg 87%
    18:00 +7°C° 0.2 mm 10 m/S 740 mmHg 91%
    19:00 +7°C° 0.8 mm 10 m/S 739 mmHg 92%
    20:00 +7°C° 0.8 mm 10 m/S 739 mmHg 93%
    21:00 +8°C° 0.8 mm 9 m/S 739 mmHg 94%
    22:00 +8°C° 2.2 mm 10 m/S 738 mmHg 94%
    23:00 +8°C° 2.2 mm 10 m/S 737 mmHg 94%

    15 Dezember, Samstag

    Zeit Temperatur Niederschläge Wind Luftdruck Luftfeuchtigkeit
    00:00 +8°C° 2.2 mm 10 m/S 736 mmHg 94%
    01:00 +9°C° 1.3 mm 10 m/S 734 mmHg 93%
    02:00 +11°C° 1.3 mm 10 m/S 733 mmHg 92%
    03:00 +12°C° 1.3 mm 10 m/S 732 mmHg 91%
    04:00 +12°C° 0.3 mm 11 m/S 732 mmHg 90%
    05:00 +12°C° 0.3 mm 11 m/S 732 mmHg 90%
    06:00 +12°C° 0.3 mm 12 m/S 731 mmHg 89%
    07:00 +10°C° 0.2 mm 13 m/S 731 mmHg 84%
    08:00 +10°C° 0.2 mm 14 m/S 730 mmHg 79%
    09:00 +9°C° 0.2 mm 15 m/S 730 mmHg 73%
    10:00 +8°C° 0 mm 14 m/S 731 mmHg 72%
    11:00 +7°C° 0 mm 13 m/S 733 mmHg 71%
    12:00 +5°C° 0 mm 12 m/S 734 mmHg 70%
    13:00 +6°C° 0 mm 11 m/S 735 mmHg 69%
    14:00 +5°C° 0 mm 10 m/S 736 mmHg 69%
    15:00 +5°C° 0 mm 9 m/S 736 mmHg 68%
    16:00 +4°C° 0 mm 8 m/S 736 mmHg 70%
    17:00 +4°C° 0 mm 8 m/S 737 mmHg 71%
    18:00 +2°C° 0 mm 8 m/S 737 mmHg 73%
    19:00 +3°C° 0.5 mm 9 m/S 737 mmHg 77%
    20:00 +3°C° 0.5 mm 10 m/S 737 mmHg 82%
    21:00 +3°C° 0.5 mm 11 m/S 737 mmHg 86%
    22:00 +3°C° 0.5 mm 10 m/S 737 mmHg 87%
    23:00 +2°C° 0.5 mm 9 m/S 737 mmHg 88%
    Mehr zeigen